Time,TemperatureF,DewpointF,PressureIn,WindDirection,WindDirectionDegrees,WindSpeedMPH,WindSpeedGustMPH,Humidity,HourlyPrecipIn,Conditions,Clouds,dailyrainin,SoftwareType,DateUTC
2013-06-19 16:40:00,86.1,73.4,29.87,WSW,243,1.0,4.0,66,0.00,,,0.19,Wunderground v.1.15,2013-06-19 21:40:00,
2013-06-19 16:45:00,86.3,74.5,29.87,South,190,2.0,4.0,68,0.00,,,0.19,Wunderground v.1.15,2013-06-19 21:45:00,
2013-06-19 16:55:00,86.9,73.7,29.87,WSW,248,1.0,2.0,65,0.00,,,0.19,Wunderground v.1.15,2013-06-19 21:55:00,
2013-06-19 17:00:00,86.6,74.3,29.87,SSE,159,2.0,2.0,67,0.00,,,0.19,Wunderground v.1.15,2013-06-19 22:00:00,
2013-06-19 17:05:00,86.6,73.9,29.87,South,191,2.0,4.0,66,0.00,,,0.19,Wunderground v.1.15,2013-06-19 22:05:00,
2013-06-19 17:10:00,87.1,74.4,29.87,WNW,292,2.0,4.0,66,0.00,,,0.19,Wunderground v.1.15,2013-06-19 22:10:00,
2013-06-19 17:15:00,86.8,73.2,29.87,WNW,292,1.0,4.0,64,0.00,,,0.19,Wunderground v.1.15,2013-06-19 22:15:00,
2013-06-19 17:20:00,86.3,74.9,29.87,SSW,192,1.0,1.0,69,0.00,,,0.19,Wunderground v.1.15,2013-06-19 22:20:00,
2013-06-19 17:25:00,85.6,74.3,29.87,SSE,149,1.0,4.0,69,0.00,,,0.19,Wunderground v.1.15,2013-06-19 22:25:00,
2013-06-19 17:30:00,85.0,74.1,29.87,WSW,244,1.0,4.0,70,0.00,,,0.19,Wunderground v.1.15,2013-06-19 22:30:00,
2013-06-19 17:35:00,84.7,74.7,29.87,WSW,245,1.0,4.0,72,0.00,,,0.19,Wunderground v.1.15,2013-06-19 22:35:00,
2013-06-19 17:45:00,85.9,75.0,29.88,SW,223,1.0,4.0,70,0.00,,,0.19,Wunderground v.1.15,2013-06-19 22:45:00,
2013-06-19 17:50:00,86.6,75.6,29.88,SW,234,1.0,4.0,70,0.00,,,0.19,Wunderground v.1.15,2013-06-19 22:50:00,
2013-06-19 17:55:00,86.7,74.4,29.87,West,264,1.0,4.0,67,0.00,,,0.19,Wunderground v.1.15,2013-06-19 22:55:00,
2013-06-19 18:00:00,86.5,74.7,29.87,SSE,156,1.0,4.0,68,0.00,,,0.19,Wunderground v.1.15,2013-06-19 23:00:00,
2013-06-19 18:05:00,86.1,74.3,29.87,South,172,1.0,4.0,68,0.00,,,0.19,Wunderground v.1.15,2013-06-19 23:05:00,
2013-06-19 18:10:00,85.7,74.4,29.87,WSW,252,1.0,4.0,69,0.00,,,0.19,Wunderground v.1.15,2013-06-19 23:10:00,
2013-06-19 18:20:00,85.2,74.3,29.87,SSW,197,1.0,4.0,70,0.00,,,0.19,Wunderground v.1.15,2013-06-19 23:20:00,
2013-06-19 18:25:00,84.7,74.3,29.87,SSE,157,1.0,4.0,71,0.00,,,0.19,Wunderground v.1.15,2013-06-19 23:25:00,
2013-06-19 18:30:00,84.1,73.7,29.87,SSE,158,1.0,4.0,71,0.00,,,0.19,Wunderground v.1.15,2013-06-19 23:30:00,
2013-06-19 18:35:00,83.7,74.5,29.87,South,170,1.0,4.0,74,0.00,,,0.19,Wunderground v.1.15,2013-06-19 23:35:00,
2013-06-19 18:40:00,83.5,74.3,29.87,SSE,167,1.0,4.0,74,0.00,,,0.19,Wunderground v.1.15,2013-06-19 23:40:00,
2013-06-19 18:45:00,83.3,74.1,29.87,SSE,155,1.0,4.0,74,0.00,,,0.19,Wunderground v.1.15,2013-06-19 23:45:00,
2013-06-19 18:50:00,83.1,73.9,29.87,SE,146,1.0,4.0,74,0.00,,,0.19,Wunderground v.1.15,2013-06-19 23:50:00,
2013-06-19 18:55:00,82.9,74.2,29.87,SE,138,1.0,4.0,75,0.00,,,0.19,Wunderground v.1.15,2013-06-19 23:55:00,
2013-06-19 19:00:00,82.6,73.9,29.87,SE,138,1.0,4.0,75,0.00,,,0.19,Wunderground v.1.15,2013-06-20 00:00:00,
2013-06-19 19:05:00,82.4,73.7,29.87,SE,138,1.0,4.0,75,0.00,,,0.19,Wunderground v.1.15,2013-06-20 00:05:00,
2013-06-19 19:10:00,82.4,74.5,29.87,SE,138,0.0,4.0,77,0.00,,,0.19,Wunderground v.1.15,2013-06-20 00:10:00,
2013-06-19 19:15:00,82.3,74.0,29.87,SE,138,0.0,4.0,76,0.00,,,0.19,Wunderground v.1.15,2013-06-20 00:15:00,
2013-06-19 19:20:00,82.1,74.6,29.87,SE,138,0.0,4.0,78,0.00,,,0.19,Wunderground v.1.15,2013-06-20 00:20:00,
2013-06-19 19:25:00,82.0,74.1,29.88,SE,138,0.0,4.0,77,0.00,,,0.19,Wunderground v.1.15,2013-06-20 00:25:00,
2013-06-19 19:30:00,82.0,74.1,29.88,SE,138,0.0,4.0,77,0.00,,,0.19,Wunderground v.1.15,2013-06-20 00:30:00,
2013-06-19 19:35:00,82.0,73.7,29.88,SE,138,0.0,4.0,76,0.00,,,0.19,Wunderground v.1.15,2013-06-20 00:35:00,
2013-06-19 19:40:00,82.0,74.8,29.89,SE,138,0.0,4.0,79,0.00,,,0.19,Wunderground v.1.15,2013-06-20 00:40:00,
2013-06-19 19:45:00,81.7,74.9,29.89,SE,138,0.0,4.0,80,0.00,,,0.19,Wunderground v.1.15,2013-06-20 00:45:00,
2013-06-19 19:50:00,81.4,74.6,29.89,SE,138,0.0,4.0,80,0.00,,,0.19,Wunderground v.1.15,2013-06-20 00:50:00,
2013-06-19 19:55:00,81.3,74.2,29.88,SE,138,0.0,4.0,79,0.00,,,0.19,Wunderground v.1.15,2013-06-20 00:55:00,
2013-06-19 20:00:00,81.1,74.7,29.88,SE,138,0.0,4.0,81,0.00,,,0.19,Wunderground v.1.15,2013-06-20 01:00:00,
2013-06-19 20:05:00,80.5,74.5,29.88,SE,138,0.0,4.0,82,0.00,,,0.19,Wunderground v.1.15,2013-06-20 01:05:00,
2013-06-19 20:10:00,79.7,74.4,29.89,SE,138,1.0,1.0,84,0.00,,,0.19,Wunderground v.1.15,2013-06-20 01:10:00,
2013-06-19 20:15:00,79.2,74.3,29.89,SE,138,0.0,4.0,85,0.00,,,0.19,Wunderground v.1.15,2013-06-20 01:15:00,
2013-06-19 20:20:00,78.8,73.9,29.89,SE,138,0.0,4.0,85,0.00,,,0.19,Wunderground v.1.15,2013-06-20 01:20:00,
2013-06-19 20:25:00,78.5,73.6,29.89,SE,138,0.0,4.0,85,0.00,,,0.19,Wunderground v.1.15,2013-06-20 01:25:00,
2013-06-19 20:30:00,78.2,73.7,29.89,SE,138,0.0,4.0,86,0.00,,,0.19,Wunderground v.1.15,2013-06-20 01:30:00,
2013-06-19 20:35:00,77.8,73.6,29.89,SE,138,0.0,4.0,87,0.00,,,0.19,Wunderground v.1.15,2013-06-20 01:35:00,
2013-06-19 20:40:00,77.5,73.3,29.89,SE,138,0.0,4.0,87,0.00,,,0.19,Wunderground v.1.15,2013-06-20 01:40:00,
2013-06-19 20:45:00,77.1,73.3,29.89,SE,138,0.0,4.0,88,0.00,,,0.19,Wunderground v.1.15,2013-06-20 01:45:00,
2013-06-19 20:50:00,76.8,73.0,29.89,SE,138,0.0,4.0,88,0.00,,,0.19,Wunderground v.1.15,2013-06-20 01:50:00,
2013-06-19 20:55:00,76.6,73.1,29.89,SE,138,0.0,4.0,89,0.00,,,0.19,Wunderground v.1.15,2013-06-20 01:55:00,
2013-06-19 21:00:00,76.4,72.9,29.89,SE,138,0.0,4.0,89,0.00,,,0.19,Wunderground v.1.15,2013-06-20 02:00:00,
2013-06-19 21:05:00,76.2,72.7,29.89,SE,138,0.0,4.0,89,0.00,,,0.19,Wunderground v.1.15,2013-06-20 02:05:00,
2013-06-19 21:10:00,76.1,73.0,29.89,SE,138,0.0,4.0,90,0.00,,,0.19,Wunderground v.1.15,2013-06-20 02:10:00,
2013-06-19 21:15:00,75.9,72.8,29.89,SE,138,0.0,4.0,90,0.00,,,0.19,Wunderground v.1.15,2013-06-20 02:15:00,
2013-06-19 21:20:00,75.8,72.7,29.89,SE,138,0.0,4.0,90,0.00,,,0.19,Wunderground v.1.15,2013-06-20 02:20:00,
2013-06-19 21:25:00,75.6,72.8,29.90,SE,138,0.0,4.0,91,0.00,,,0.19,Wunderground v.1.15,2013-06-20 02:25:00,
2013-06-19 21:30:00,75.4,72.6,29.90,SE,138,0.0,4.0,91,0.00,,,0.19,Wunderground v.1.15,2013-06-20 02:30:00,
2013-06-19 21:35:00,75.3,72.5,29.90,SE,138,0.0,4.0,91,0.00,,,0.19,Wunderground v.1.15,2013-06-20 02:35:00,
2013-06-19 21:40:00,75.1,72.3,29.91,SE,138,0.0,4.0,91,0.00,,,0.19,Wunderground v.1.15,2013-06-20 02:40:00,
2013-06-19 21:45:00,74.9,72.1,29.91,SE,138,0.0,4.0,91,0.00,,,0.19,Wunderground v.1.15,2013-06-20 02:45:00,
2013-06-19 21:50:00,74.8,72.0,29.91,SE,138,0.0,4.0,91,0.00,,,0.19,Wunderground v.1.15,2013-06-20 02:50:00,
2013-06-19 21:55:00,74.7,72.2,29.91,SE,138,0.0,4.0,92,0.00,,,0.19,Wunderground v.1.15,2013-06-20 02:55:00,
2013-06-19 22:00:00,74.6,72.1,29.91,SE,138,1.0,4.0,92,0.00,,,0.19,Wunderground v.1.15,2013-06-20 03:00:00,
2013-06-19 22:05:00,74.5,72.0,29.91,SE,138,1.0,4.0,92,0.00,,,0.19,Wunderground v.1.15,2013-06-20 03:05:00,
2013-06-19 22:10:00,74.4,72.2,29.92,SE,138,0.0,4.0,93,0.00,,,0.19,Wunderground v.1.15,2013-06-20 03:10:00,
2013-06-19 22:15:00,74.4,72.2,29.92,SE,138,0.0,4.0,93,0.00,,,0.19,Wunderground v.1.15,2013-06-20 03:15:00,
2013-06-19 22:20:00,74.3,72.1,29.92,SE,138,0.0,4.0,93,0.00,,,0.19,Wunderground v.1.15,2013-06-20 03:20:00,
2013-06-19 22:25:00,74.2,72.0,29.92,SE,138,0.0,4.0,93,0.00,,,0.19,Wunderground v.1.15,2013-06-20 03:25:00,
2013-06-19 22:30:00,74.1,71.9,29.92,SE,138,0.0,4.0,93,0.00,,,0.19,Wunderground v.1.15,2013-06-20 03:30:00,
2013-06-19 22:35:00,74.0,71.8,29.92,SE,138,0.0,4.0,93,0.00,,,0.19,Wunderground v.1.15,2013-06-20 03:35:00,
2013-06-19 22:40:00,73.9,71.7,29.92,SE,138,0.0,4.0,93,0.00,,,0.19,Wunderground v.1.15,2013-06-20 03:40:00,
2013-06-19 22:45:00,73.8,71.6,29.92,SE,138,0.0,4.0,93,0.00,,,0.19,Wunderground v.1.15,2013-06-20 03:45:00,
2013-06-19 22:50:00,73.7,71.5,29.92,SE,138,1.0,4.0,93,0.00,,,0.19,Wunderground v.1.15,2013-06-20 03:50:00,
2013-06-19 22:55:00,73.5,71.4,29.92,SE,138,1.0,4.0,93,0.00,,,0.19,Wunderground v.1.15,2013-06-20 03:55:00,
2013-06-19 23:00:00,73.4,71.3,29.92,SE,138,1.0,4.0,93,0.00,,,0.19,Wunderground v.1.15,2013-06-20 04:00:00,
2013-06-19 23:05:00,73.4,71.3,29.92,SE,138,1.0,4.0,93,0.00,,,0.19,Wunderground v.1.15,2013-06-20 04:05:00,
2013-06-19 23:10:00,73.3,71.5,29.93,SE,138,1.0,1.0,94,0.00,,,0.19,Wunderground v.1.15,2013-06-20 04:10:00,
2013-06-19 23:15:00,73.2,71.4,29.93,SE,138,1.0,4.0,94,0.00,,,0.19,Wunderground v.1.15,2013-06-20 04:15:00,
2013-06-19 23:20:00,73.2,71.4,29.93,SE,138,0.0,4.0,94,0.00,,,0.19,Wunderground v.1.15,2013-06-20 04:20:00,
2013-06-19 23:25:00,73.1,71.3,29.93,SE,138,1.0,4.0,94,0.00,,,0.19,Wunderground v.1.15,2013-06-20 04:25:00,
2013-06-19 23:30:00,73.0,71.2,29.93,East,85,1.0,1.0,94,0.00,,,0.19,Wunderground v.1.15,2013-06-20 04:30:00,
2013-06-19 23:35:00,73.0,71.2,29.93,East,85,0.0,4.0,94,0.00,,,0.19,Wunderground v.1.15,2013-06-20 04:35:00,
2013-06-19 23:40:00,72.9,71.1,29.93,East,85,0.0,4.0,94,0.00,,,0.19,Wunderground v.1.15,2013-06-20 04:40:00,
2013-06-19 23:45:00,72.9,71.1,29.93,East,85,1.0,4.0,94,0.00,,,0.19,Wunderground v.1.15,2013-06-20 04:45:00,
2013-06-19 23:50:00,72.8,71.0,29.93,East,85,1.0,4.0,94,0.00,,,0.19,Wunderground v.1.15,2013-06-20 04:50:00,
2013-06-19 23:55:00,72.7,70.9,29.93,East,84,0.0,4.0,94,0.00,,,0.19,Wunderground v.1.15,2013-06-20 04:55:00,